Date String (YYYY-MM-DD hh:mm:ss) UTC,Instrument flags,Ambient pressure (hPa),Sample flow (lpm),Bypass flow (lpm),Sample temperature (°C),Ambient temperature (°C),ASC tube jacket temperature (°C),LED temperature (°C),Box temperature (°C),Sample RH (%),Span deviation,Mass concentration (μg/m³),Mass concentration (μg/m³),Mass concentration (μg/m³)
DateTimeUTC,F1_M11,P_M11,Q1_M11,Q2_M11,T1_M11,T2_M11,T3_M11,T4_M11,T5_M11,U1_M11,ZSPAN_M11,X0_M11,X2_M11,X1_M11
2023-02-19 13:00:00,,0820.6,5.01,0.00,22.1,20.7,00.0,31.1,23.7,09.1,0000.0,0006.30,0002.72,0001.76
2023-02-19 13:01:00,,0820.6,4.99,0.00,22.1,20.5,00.0,31.1,23.6,09.0,0000.0,0007.34,0002.71,0001.75
2023-02-19 13:02:00,,0820.6,5.00,0.00,22.1,20.3,00.0,31.1,23.6,09.1,0000.0,0007.32,0002.71,0001.74
2023-02-19 13:03:00,,0820.6,4.99,0.00,22.0,20.2,00.0,31.0,23.6,09.5,0000.0,0007.20,0002.65,0001.73
2023-02-19 13:04:00,,0820.6,5.00,0.00,22.0,20.1,00.0,31.0,23.5,09.6,0000.0,0007.10,0002.60,0001.73
2023-02-19 13:05:00,,0820.6,4.99,0.00,21.9,20.0,00.0,31.0,23.5,09.7,0000.0,0007.41,0002.59,0001.73
2023-02-19 13:06:00,,0820.6,5.00,0.00,21.9,19.9,00.0,31.0,23.4,09.9,0000.0,0007.09,0002.59,0001.75
2023-02-19 13:07:00,,0820.6,5.01,0.00,21.9,20.2,00.0,30.9,23.5,10.0,0000.0,0006.67,0002.62,0001.76
2023-02-19 13:08:00,,0820.6,4.99,0.00,22.0,21.5,00.0,30.8,23.8,09.8,0000.0,0006.73,0002.63,0001.76
2023-02-19 13:09:00,,0820.6,5.03,0.00,22.1,22.6,00.0,30.8,24.1,09.8,0000.0,0006.57,0002.57,0001.76
2023-02-19 13:10:00,,0820.6,5.10,0.00,22.2,23.3,00.0,30.9,24.3,09.9,0000.0,0006.60,0002.58,0001.78
2023-02-19 13:11:00,,0820.6,5.02,0.00,22.3,22.6,00.0,30.9,24.2,09.9,0000.0,0006.85,0002.67,0001.81
2023-02-19 13:12:00,,0820.6,5.03,0.00,22.3,21.9,00.0,31.0,24.0,09.9,0000.0,0005.43,0002.71,0001.83
2023-02-19 13:13:00,,0820.7,4.99,0.00,22.2,21.3,00.0,31.0,23.9,09.9,0000.0,0005.40,0002.76,0001.84
2023-02-19 13:14:00,,0820.8,4.98,0.00,22.2,20.9,00.0,31.0,23.7,10.1,0000.0,0005.76,0002.88,0001.85
2023-02-19 13:15:00,,0820.7,5.00,0.00,22.1,20.6,00.0,31.0,23.7,10.1,0000.0,0005.91,0002.92,0001.86
2023-02-19 13:16:00,,0820.7,5.01,0.00,22.1,20.4,00.0,31.0,23.6,10.2,0000.0,0005.49,0002.99,0001.88
2023-02-19 13:17:00,,0820.7,5.02,0.00,22.0,20.2,00.0,31.0,23.6,10.4,0000.0,0005.54,0003.01,0001.89
2023-02-19 13:18:00,,0820.8,5.00,0.00,22.0,20.1,00.0,31.0,23.5,10.5,0000.0,0005.37,0002.96,0001.88
2023-02-19 13:19:00,,0820.9,4.99,0.00,21.9,20.0,00.0,31.0,23.4,10.6,0000.0,0005.57,0002.98,0001.88
2023-02-19 13:20:00,,0820.9,4.99,0.00,21.9,19.8,00.0,30.9,23.4,10.7,0000.0,0005.98,0003.07,0001.89
2023-02-19 13:21:00,,0820.9,5.00,0.00,21.8,19.9,00.0,30.9,23.3,10.8,0000.0,0006.13,0003.09,0001.89
2023-02-19 13:22:00,,0820.9,5.03,0.00,21.9,21.0,00.0,30.8,23.6,10.8,0000.0,0007.01,0002.99,0001.89
2023-02-19 13:23:00,,0820.8,5.03,0.00,22.0,22.3,00.0,30.8,24.0,10.8,0000.0,0007.08,0002.97,0001.88
2023-02-19 13:24:00,,0820.9,4.97,0.00,22.2,23.3,00.0,30.8,24.2,10.8,0000.0,0007.08,0002.94,0001.88
2023-02-19 13:25:00,,0820.9,5.06,0.00,22.3,23.1,00.0,30.9,24.3,10.9,0000.0,0007.03,0002.89,0001.89
2023-02-19 13:26:00,,0820.9,5.02,0.00,22.3,22.3,00.0,31.0,24.2,11.0,0000.0,0007.12,0002.92,0001.89
2023-02-19 13:27:00,,0821.0,4.98,0.00,22.3,21.7,00.0,31.0,24.0,10.9,0000.0,0007.08,0002.88,0001.89
2023-02-19 13:28:00,,0820.9,5.00,0.00,22.2,21.2,00.0,31.0,23.9,11.0,0000.0,0007.18,0002.88,0001.89
2023-02-19 13:29:00,,0820.9,5.03,0.00,22.2,20.8,00.0,31.1,23.8,11.1,0000.0,0007.49,0002.92,0001.90
2023-02-19 13:30:00,,0820.9,4.99,0.00,22.1,20.5,00.0,31.0,23.7,11.1,0000.0,0007.37,0002.87,0001.90
2023-02-19 13:31:00,,0820.9,5.02,0.00,22.1,20.3,00.0,31.0,23.6,11.1,0000.0,0007.14,0002.83,0001.90
2023-02-19 13:32:00,,0820.9,5.01,0.00,22.0,17.8,00.0,30.0,23.5,11.2,0000.0,0007.39,0002.88,0001.90
2023-02-19 13:33:00,,0820.9,5.00,0.00,22.0,20.0,00.0,31.0,23.4,11.3,0000.0,0006.58,0002.95,0001.90
2023-02-19 13:34:00,,0820.9,4.99,0.00,21.9,19.9,00.0,31.0,23.4,11.3,0000.0,0006.68,0002.97,0001.87
2023-02-19 13:35:00,,0821.0,5.00,0.00,21.8,19.8,00.0,30.9,23.3,11.3,0000.0,0007.45,0003.01,0001.87
2023-02-19 13:36:00,,0821.0,5.01,0.00,21.8,20.4,00.0,30.9,23.4,11.3,0000.0,0007.41,0002.99,0001.86
2023-02-19 13:37:00,,0821.0,5.01,0.00,22.0,21.8,00.0,30.8,23.8,11.3,0000.0,0007.31,0002.91,0001.84
2023-02-19 13:38:00,,0821.0,4.96,0.00,22.1,22.9,00.0,30.8,24.1,11.2,0000.0,0007.30,0002.91,0001.81
2023-02-19 13:39:00,,0821.1,5.04,0.00,22.2,23.3,00.0,30.8,24.3,11.2,0000.0,0007.24,0002.87,0001.78
2023-02-19 13:40:00,,0821.0,5.00,0.00,22.3,22.5,00.0,30.9,24.2,11.2,0000.0,0007.23,0002.82,0001.75
2023-02-19 13:41:00,,0821.0,5.01,0.00,22.2,21.8,00.0,31.0,24.0,11.1,0000.0,0007.22,0002.85,0001.73
2023-02-19 13:42:00,,0821.0,5.00,0.00,22.2,21.4,00.0,31.0,23.9,11.1,0000.0,0007.28,0002.87,0001.71
2023-02-19 13:43:00,,0821.0,4.97,0.00,22.1,20.9,00.0,31.0,23.8,11.2,0000.0,0007.20,0002.85,0001.71
2023-02-19 13:44:00,,0821.0,4.99,0.00,22.1,20.6,00.0,31.0,23.7,11.3,0000.0,0007.02,0002.78,0001.68
2023-02-19 13:45:00,,0821.0,5.01,0.00,22.1,20.4,00.0,31.0,23.6,11.3,0000.0,0006.77,0002.74,0001.69
2023-02-19 13:46:00,,0821.0,5.00,0.00,22.0,20.2,00.0,31.0,23.5,11.3,0000.0,0005.56,0002.65,0001.67
2023-02-19 13:47:00,,0821.0,5.00,0.00,22.0,20.0,00.0,31.0,23.5,11.3,0000.0,0005.50,0002.67,0001.66
2023-02-19 13:48:00,,0821.0,5.00,0.00,21.9,19.8,00.0,31.0,23.5,11.3,0000.0,0005.50,0002.70,0001.67
2023-02-19 13:49:00,,0821.0,5.00,0.00,21.9,19.7,00.0,31.0,23.4,11.4,0000.0,0005.39,0002.68,0001.68
2023-02-19 13:50:00,,0821.0,5.00,0.00,21.9,20.5,00.0,30.9,23.6,11.4,0000.0,0005.70,0002.72,0001.69
2023-02-19 13:51:00,,0821.1,5.05,0.00,22.0,21.8,00.0,30.8,23.9,11.3,0000.0,0005.44,0002.74,0001.69
2023-02-19 13:52:00,,0821.0,4.93,0.00,22.1,22.7,00.0,30.8,24.1,11.3,0000.0,0005.83,0002.71,0001.68
2023-02-19 13:53:00,,0821.0,5.00,0.00,22.2,22.2,00.0,30.9,24.1,11.2,0000.0,0006.46,0002.72,0001.68
2023-02-19 13:54:00,,0821.0,5.00,0.00,22.2,21.6,00.0,31.0,23.9,11.3,0000.0,0006.47,0002.69,0001.67
2023-02-19 13:55:00,,0821.0,5.00,0.00,22.1,21.2,00.0,31.0,23.9,11.3,0000.0,0006.76,0002.79,0001.67
2023-02-19 13:56:00,,0821.1,5.00,0.00,22.1,20.9,00.0,31.0,23.7,11.3,0000.0,0006.93,0002.87,0001.68
2023-02-19 13:57:00,,0821.0,5.01,0.00,22.1,20.6,00.0,31.0,23.7,11.4,0000.0,0007.04,0002.88,0001.68
2023-02-19 13:58:00,,0821.1,5.00,0.00,22.0,20.4,00.0,31.0,23.6,11.4,0000.0,0007.43,0002.90,0001.66
2023-02-19 13:59:00,,0821.0,5.01,0.00,22.0,20.2,00.0,31.0,23.5,11.4,0000.0,0008.15,0002.86,0001.62
